User: anonymous   Login
Location: Unspecified
(0.0000°N, 0.0000°E)
Time: 16:38:12
(UTC+00:00)
Language:

WISE - Orbit

View from above orbital plane
View from above orbital plane
View from above satellite
View from above satellite

Ground track
Ground track

The orbit data is extracted from the following two-line orbital elements,

1 36119U 09071A   18169.66066465 +.00000679 +00000-0 +26708-4 0  9990
2 36119 097.4132 201.9243 0004404 094.7555 265.4188 15.29074047472260
Epoch (UTC): 18 June 2018 15:51:21
Eccentricity: 0.0004404
inclination: 97.4132°
perigee height: 475 km
apogee height: 481 km
right ascension of ascending node: 201.9243°
argument of perigee: 94.7555°
revolutions per day: 15.29074047
mean anomaly at epoch: 265.4188°
orbit number at epoch: 47226

The dashed part of the orbit path shows where the satellite is in the earth's shadow,  

DLR